Location: Melbourne
(37.8170°S, 144.9670°E)
Time: 20:45:29
(UTC+11:00)

CZ-3 R/B - Visible Passes

Search period start: 19 February 2018 00:00
Search period end: 01 March 2018 00:00
Orbit: 275 x 10403 km, 28.4° (Epoch: 18 February)

Date Brightness Start Highest point End Pass type
(mag) Time Alt. Az. Time Alt. Az. Time Alt. Az.
19 Feb 6.3 20:16:36 10° W 20:50:36 65° NNW 22:02:34 20° NE visible
20 Feb 6.5 00:14:58 10° W 01:08:06 30° NW 01:32:53 27° NNW visible
20 Feb 6.4 20:51:43 10° W 21:30:03 60° NNW 22:34:37 24° NE visible
21 Feb 6.7 00:57:27 10° W 01:45:02 23° WNW 02:04:56 21° NW visible
21 Feb 6.5 21:27:12 10° W 22:09:28 54° NNW 23:06:45 27° NNE visible
22 Feb 6.8 01:47:14 10° W 02:21:40 15° WNW 02:37:04 14° NW visible
22 Feb 6.5 22:03:11 10° W 22:48:34 47° NW 23:38:57 28° N visible
23 Feb 5.9 18:50:15 10° W 19:12:06 67° N 20:32:38 10° ENE visible
23 Feb 6.5 22:39:53 10° W 23:27:13 40° NW 00:11:13 27° N visible
24 Feb 6.0 19:24:40 10° W 19:49:55 64° NNW 21:11:53 10° NE visible
24 Feb 6.6 23:17:47 10° W 00:05:24 33° NW 00:43:35 24° NNW visible
25 Feb 6.2 19:59:16 10° W 20:28:11 60° NNW 21:45:40 13° NE visible
25 Feb 6.7 23:57:46 10° W 00:43:11 25° NW 01:16:01 20° NNW visible
26 Feb 6.4 20:34:08 10° W 21:06:45 54° NNW 22:18:09 16° NNE visible
27 Feb 6.8 00:42:13 10° W 01:20:46 18° NW 01:48:32 15° NW visible
27 Feb 6.5 21:09:24 10° W 21:45:26 48° NNW 22:50:45 18° NNE visible
28 Feb 6.9 01:44:31 10° WNW 01:58:28 11° WNW 02:12:56 10° NW visible
28 Feb 6.7 21:45:14 10° W 22:24:04 41° NW 23:23:29 19° N visible
